Printer-friendly version

IAU Minor Planet Center

Minor Planet Center

MPEC 2005-G14 : 2005 GL

The following Minor Planet Electronic Circular may be linked-to from your own Web pages, but must not otherwise be redistributed electronically.


Read MPEC 2005-G13 Read MPEC 2005-G15


M.P.E.C. 2005-G14                                Issued 2005 Apr. 2, 11:53 UT

     The Minor Planet Electronic Circulars contain information on unusual
         minor planets and routine data on comets.  They are published
   on behalf of Commission 20 of the International Astronomical Union by the
          Minor Planet Center, Smithsonian Astrophysical Observatory,
                          Cambridge, MA 02138, U.S.A.

                  Supported in part by the Brinson Foundation
             Prepared using the Tamkin Foundation Computer Network

                              MPC@CFA.HARVARD.EDU
          URL http://cfa-www.harvard.edu/iau/mpc.html  ISSN 1523-6714

                                    2005 GL

Observations:
     K05G00L* C2005 04 01.33459 14 15 11.58 +49 08 14.8          19.3   EG014704
     K05G00L  C2005 04 01.35542 14 15 06.92 +49 09 09.6          19.9   EG014704
     K05G00L  C2005 04 01.36579 14 15 04.68 +49 09 37.2          19.9   EG014704
     K05G00L  C2005 04 01.96455 14 13 03.65 +49 36 14.8                 EG014J95
     K05G00L  C2005 04 01.98575 14 12 58.03 +49 37 18.6          19.0 R EG014118
     K05G00L  C2005 04 01.98686 14 12 57.79 +49 37 21.9          18.9 R EG014118
     K05G00L  C2005 04 01.98799 14 12 57.58 +49 37 24.4          18.9 R EG014118
     K05G00L  C2005 04 01.98910 14 12 57.29 +49 37 28.2          19.0 R EG014118
     K05G00L  C2005 04 01.99021 14 12 57.05 +49 37 30.9          18.7 R EG014118
     K05G00L  C2005 04 02.01462 14 12 52.36 +49 38 34.2          19.1 R EG014J95
     K05G00L 2C2005 04 02.17111 14 12 21.47 +49 45 36.5          19.0 R EG014H06
     K05G00L 2C2005 04 02.17387 14 12 20.79 +49 45 45.7          18.9 R EG014H06
     K05G00L 2C2005 04 02.17665 14 12 20.13 +49 45 53.3          18.8 R EG014H06
     K05G00L  C2005 04 02.29875 14 11 51.80 +49 51 39.7          19.5 R EG014854
     K05G00L  C2005 04 02.30155 14 11 50.06 +49 51 45.9          19.1 R EG014734
     K05G00L  C2005 04 02.30351 14 11 50.65 +49 51 55.1          19.5 R EG014854
     K05G00L  C2005 04 02.30597 14 11 49.04 +49 51 58.3          19.0 R EG014734
     K05G00L  C2005 04 02.31038 14 11 48.07 +49 52 10.6          19.1 R EG014734

Observer details:
118 Modra.  Observers S. Gajdos, J. Vilagi.  0.6-m f/5.5 reflector + CCD.
704 Lincoln Laboratory ETS, New Mexico.  Observers M. Blythe, F. Shelly,
    M. Bezpalko, R. Huber, L. Manguso, D. Torres, R. Kracke, M. McCleary,
    H. Stange, A. Milner.  Measurers J. Stuart, R. Sayer, J. Evans, J. Kommers.
    1.0-m f/2.15 reflector + CCD.
734 Farpoint Observatory.  Observer G. Hug.  0.7-m reflector + CCD.
854 Sabino Canyon Observatory, Tucson.  Observer J. E. McGaha.  0.36-m f/10.0
    Schmidt-Cassegrain + CCD.
H06 New Mexico Skies Observatory.  Observer R. Hutsebaut.  0.25-m reflector
    + CCD.
J95 Great Shefford.  Observer P. Birtwhistle.  0.30-m f/6.3 Schmidt-Cassegrain
    + CCD.

Orbital elements:
2005 GL                                                              PHA 0.022A
Epoch 2005 Mar. 31.0 TT = JDT 2453460.5                 MPC
M 272.19324              (2000.0)            P               Q
n   0.91767997     Peri.  265.42405     +0.61043184     +0.76988973
a   1.0487578      Node    44.04985     -0.57808264     +0.59368327
e   0.2990265      Incl.   15.52729     -0.54147339     +0.23411532
P   1.07           H   20.9           G   0.15
From 18 observations 2005 Apr. 1-2.

Ephemeris:
2005 GL                  a,e,i = 1.05, 0.30, 16                  q = 0.7352
Date    TT    R. A. (2000) Decl.     Delta      r     Elong.  Phase     V
2005 03 31    14 19.30   +48 09.3    0.208    1.127   123.3    47.9    19.6
2005 04 10    13 29.15   +56 05.2    0.157    1.080   116.0    56.5    19.1
2005 04 20    11 07.85   +62 24.5    0.114    1.030    99.6    74.1    18.8
2005 04 30    07 27.78   +49 01.0    0.0919   0.978    68.9   106.0    19.6
2005 05 10    05 38.84   +19 45.3    0.107    0.925    35.8   140.3    22.8

Timothy B. Spahr             (C) Copyright 2005 MPC           M.P.E.C. 2005-G14

Read MPEC 2005-G13 Read MPEC 2005-G15


Our Web policy. Index to the CBAT/MPC/ICQ pages.


Valid HTML 4.01!